Home > Weather > Nashville > Past weeks

Flag for U.S.A. Weather for the Past 2 Weeks in Nashville, Tennessee, U.S.A.

Now
44 °F

Mostly cloudy.


Feels Like: 39 °F
Forecast: 28 / 43 °F
Wind: 10 mph from North

Location: Nashville International Airport

Current Time: Feb 12, 2016 at 2:53:08 PM

Latest Report: Feb 12, 2016 at 1:53 PM


Visibility: 10 mi

Pressure: 30.18 "Hg

Humidity: 45%

Dew point: 24 °F

Location of NashvilleLocation

Historic Weather in Nashville — Graph

°F

Nashville Temperature Yesterday

Maximum temperature yesterday: 44 °F (at 2:53 PM)
Minimum temperature yesterday: 26 °F (at 1:53 AM)
Average temperature yesterday: 33 °F

High & Low Weather Summary for the Past Weeks

 TemperatureHumidityPressure
High75 °F (Feb 2, 1:53 PM)96% (Feb 2, 5:53 AM)30.50 "Hg (Feb 2, 5:53 AM)
Low20 °F (Feb 10, 6:53 AM)19% (Feb 7, 2:53 PM)29.65 "Hg (Feb 2, 9:53 PM)
Average43 °F60%30.06 "Hg
* Reported Jan 28 1:53 PM — Feb 12 1:53 PM, Nashville, Weather by CustomWeather, © 2016

Note: Actual official high and low records may vary slightly from our data, if they occured in-between our weather recording intervals... More about our weather records

Advertising

Nashville Weather History for the Previous 24 Hours

 ConditionsComfort  
Time TempWeatherWind HumidityBarometerVisibility
1:53 PM
Fri, Feb 12
44 °FMostly cloudy.10 mph45%30.18 "Hg10 mi
12:53 PM44 °FScattered clouds.3 mph49%30.19 "Hg10 mi
11:53 AM41 °FOvercast.5 mph49%30.21 "Hg10 mi
10:53 AM39 °FOvercast.5 mph53%30.22 "Hg10 mi
9:53 AM37 °FMostly cloudy.3 mph54%30.21 "Hg10 mi
8:53 AM36 °FMostly cloudy.3 mph57%30.20 "Hg10 mi
7:53 AM34 °FOvercast.No wind64%30.20 "Hg10 mi
6:53 AM34 °FOvercast.No wind61%30.20 "Hg10 mi
5:53 AM34 °FLight snow. Mostly cloudy.6 mph61%30.20 "Hg9 mi
4:53 AM34 °FLight snow. Mostly cloudy.3 mph59%30.17 "Hg10 mi
3:53 AM34 °FOvercast.6 mph61%30.19 "Hg10 mi
2:53 AM34 °FOvercast.No wind59%30.18 "Hg10 mi
1:53 AM34 °FLight rain. Overcast.5 mph56%30.17 "Hg10 mi
12:53 AM34 °FOvercast.No wind56%30.21 "Hg10 mi
11:53 PM
Thu, Feb 11
34 °FOvercast.5 mph54%30.25 "Hg10 mi
10:53 PM34 °FMostly cloudy.8 mph56%30.25 "Hg10 mi
9:53 PM35 °FOvercast.7 mph52%30.26 "Hg10 mi
8:53 PM35 °FPassing clouds.6 mph56%30.29 "Hg10 mi
7:53 PM33 °FPassing clouds.6 mph61%30.29 "Hg10 mi
6:53 PM34 °FPassing clouds.7 mph59%30.28 "Hg10 mi
5:53 PM36 °FPassing clouds.9 mph54%30.28 "Hg10 mi
4:53 PM39 °FPassing clouds.8 mph48%30.26 "Hg10 mi
3:53 PM43 °FPassing clouds.5 mph42%30.24 "Hg10 mi
2:53 PM44 °FPassing clouds.8 mph40%30.23 "Hg10 mi
Weather by CustomWeather, © 2016

See weather overviewHow to use our weather pages